St. Paul, MN

3:28 AM CDT on April 24, 2017 (GMT -0500)
Saint Paul Downtown-Holman

Weather History for KSTP - August, 2014

Change the Weather History Date:

Sunday, August 24, 2014

  Actual Average Record
Temperature  
Mean Temperature 80 °F -  
Max Temperature 89 °F 78 °F 99 °F (2003)
Min Temperature 73 °F 58 °F 55 °F (1996)
Cooling Degree Days 14    
Growing Degree Days 30 (Base 50)    
Moisture  
Dew Point 72 °F    
Average Humidity 81    
Maximum Humidity 91    
Minimum Humidity 63    
Precipitation  
Precipitation 0.05 in - - ()
Sea Level Pressure  
Sea Level Pressure 29.83 in    
Wind  
Wind Speed 11 mph (SSE)    
Max Wind Speed 16 mph    
Max Gust Speed 24 mph    
Visibility 10 miles    
Events Rain , Thunderstorm    
Averages and records for this station are not official NWS values.
T = Trace of Precipitation, MM = Missing Value Source: NWS Daily Summary

Daily Weather History Graph

Daily Weather History Graph

Search for Another Location

Airport or City:

Trip Planner

Search our weather history database for the weather conditions in past years. The results will help you decide how hot, cold, wet, or windy it might be!

Date:

Astronomy

Aug. 24, 2014 Rise Set
Actual Time 6:24 AM CDT 8:03 PM CDT
Civil Twilight 5:53 AM CDT 8:34 PM CDT
Nautical Twilight 5:16 AM CDT 9:11 PM CDT
Astronomical Twilight 4:35 AM CDT 9:52 PM CDT
Moon 5:36 AM CDT 7:20 PM CDT
Length of Visible Light 14h 40m
Length of Day
13h 38m
Waning Crescent, 1% of the Moon is Illuminated
Aug 24
Waning Crescent
Aug 25
New
Sep 2
First Quarter
Sep 8
Full
Sep 15
Last Quarter

Hourly Weather History & Observations

Time (CDT) Temp. Heat Index Dew Point Humidity Pressure Visibility Wind Dir Wind Speed Gust Speed Precip Events Conditions
12:41 AM 75.9 °F - 73.0 °F 91% 29.91 in 8.0 mi SE 6.9 mph - N/A   Overcast
12:53 AM 75.9 °F - 72.0 °F 87% 29.89 in 9.0 mi ESE 11.5 mph - N/A   Overcast
1:23 AM 75.9 °F - 72.0 °F 87% 29.90 in 10.0 mi SSE 15.0 mph - N/A   Overcast
1:53 AM 75.9 °F - 72.0 °F 87% 29.88 in 10.0 mi SE 12.7 mph - N/A   Overcast
2:53 AM 75.0 °F - 71.1 °F 87% 29.86 in 10.0 mi SE 11.5 mph - N/A   Overcast
3:53 AM 75.0 °F - 71.1 °F 87% 29.83 in 10.0 mi SE 13.8 mph - N/A   Overcast
4:22 AM 75.0 °F - 71.1 °F 87% 29.83 in 10.0 mi SE 15.0 mph - N/A   Overcast
4:44 AM 75.0 °F - 71.1 °F 87% 29.83 in 10.0 mi SE 13.8 mph - N/A   Overcast
4:53 AM 75.0 °F - 71.1 °F 87% 29.82 in 10.0 mi SE 11.5 mph 21.9 mph N/A   Overcast
5:44 AM 73.9 °F - 70.0 °F 87% 29.86 in 10.0 mi SSE 13.8 mph 19.6 mph N/A Thunderstorm Overcast
5:53 AM 73.9 °F - 70.0 °F 87% 29.84 in 10.0 mi SE 8.1 mph - N/A Thunderstorm Overcast
6:05 AM 73.9 °F - 70.0 °F 87% 29.86 in 9.0 mi ESE 12.7 mph - 0.02 in Rain , Thunderstorm Light Thunderstorms and Rain
6:24 AM 73.9 °F - 70.0 °F 87% 29.86 in 10.0 mi SE 13.8 mph - 0.02 in   Overcast
6:53 AM 73.0 °F - 70.0 °F 90% 29.87 in 10.0 mi SSE 15.0 mph - 0.02 in   Overcast
7:53 AM 73.0 °F - 70.0 °F 90% 29.84 in 10.0 mi SE 15.0 mph 20.7 mph N/A   Overcast
8:53 AM 75.0 °F - 70.0 °F 84% 29.81 in 10.0 mi SE 16.1 mph 23.0 mph N/A   Overcast
9:53 AM 75.0 °F - 70.0 °F 84% 29.81 in 10.0 mi SSE 12.7 mph 24.2 mph N/A   Overcast
10:53 AM 75.0 °F - 71.1 °F 87% 29.83 in 10.0 mi SSE 12.7 mph - N/A   Overcast
11:11 AM 75.9 °F - 71.1 °F 85% 29.85 in 10.0 mi SSE 13.8 mph - N/A   Overcast
11:53 AM 78.1 °F - 72.0 °F 81% 29.83 in 10.0 mi SSE 10.4 mph - N/A   Overcast
12:41 PM 80.1 °F 83.8 °F 72.0 °F 76% 29.84 in 10.0 mi SE 9.2 mph - N/A Thunderstorm Scattered Clouds
12:53 PM 80.1 °F 83.8 °F 72.0 °F 76% 29.82 in 10.0 mi SE 10.4 mph - N/A   Partly Cloudy
1:44 PM 82.9 °F 89.4 °F 73.9 °F 74% 29.82 in 10.0 mi SE 10.4 mph - N/A   Mostly Cloudy
1:53 PM 82.9 °F 88.8 °F 73.0 °F 72% 29.80 in 10.0 mi SE 10.4 mph - N/A   Mostly Cloudy
2:46 PM 84.9 °F 92.1 °F 73.9 °F 69% 29.81 in 10.0 mi SE 8.1 mph - N/A   Scattered Clouds
2:53 PM 86.0 °F 93.8 °F 73.9 °F 67% 29.79 in 10.0 mi SSE 9.2 mph - N/A   Scattered Clouds
3:53 PM 86.0 °F 93.8 °F 73.9 °F 67% 29.80 in 10.0 mi South 9.2 mph - N/A   Mostly Cloudy
4:53 PM 86.0 °F 92.2 °F 72.0 °F 63% 29.77 in 10.0 mi South 8.1 mph - N/A   Scattered Clouds
5:24 PM 84.9 °F 91.4 °F 73.0 °F 67% 29.80 in 10.0 mi SSE 6.9 mph - N/A Thunderstorm Mostly Cloudy
5:43 PM 84.2 °F 90.9 °F 73.4 °F 70% 29.80 in 10.0 mi SSE 10.4 mph - N/A Rain , Thunderstorm Light Thunderstorms and Rain
5:53 PM 82.0 °F 87.9 °F 73.9 °F 76% 29.78 in 8.0 mi SSE 9.2 mph - 0.00 in Rain , Thunderstorm Light Thunderstorms and Rain
6:29 PM 80.1 °F 84.2 °F 73.0 °F 79% 29.79 in 10.0 mi SSE 10.4 mph - 0.02 in Thunderstorm Mostly Cloudy
6:53 PM 80.1 °F 84.5 °F 73.9 °F 81% 29.78 in 10.0 mi SSE 9.2 mph - 0.03 in Rain Light Rain
7:53 PM 80.1 °F 85.4 °F 75.9 °F 87% 29.79 in 10.0 mi SSE 4.6 mph - 0.00 in   Partly Cloudy
8:53 PM 78.8 °F - 75.2 °F 89% 29.82 in 10.0 mi South 5.8 mph - N/A   Partly Cloudy
9:53 PM 78.1 °F - 73.9 °F 87% 29.81 in 10.0 mi SSW 4.6 mph - N/A   Clear
10:53 PM 78.1 °F - 73.0 °F 84% 29.81 in 10.0 mi West 8.1 mph - N/A   Mostly Cloudy
11:53 PM 77.0 °F - 69.1 °F 76% 29.83 in 10.0 mi WNW 11.5 mph 20.7 mph N/A   Mostly Cloudy